This is the latest recevied weather packets stored in our database for station/object WD7OO. If no packets are shown the sender has not sent any weather packets the latest 10 day(s).
| Time | Temp. | Humidity | Pressure | Rain* | Wind** | Luminosity | Snow |
|---|---|---|---|---|---|---|---|
| 1777761411 | 11.11° C | 38% | 1017.9 hPa | 0 mm | - | 118 W/m² | - |
| 1777761109 | 11.11° C | 40% | 1017.7 hPa | 0 mm | - | 117 W/m² | - |
| 1777760807 | 11.67° C | 39% | 1017.8 hPa | 0 mm | - | 213 W/m² | - |
| 1777760503 | 11.67° C | 39% | 1017.7 hPa | 0 mm | - | 233 W/m² | - |
| 1777760198 | 11.67° C | 38% | 1017.9 hPa | 0 mm | - | 265 W/m² | - |
| 1777759896 | 11.67° C | 38% | 1017.9 hPa | 0 mm | - | 289 W/m² | - |
| 1777759592 | 12.22° C | 37% | 1018 hPa | 0 mm | - | 312 W/m² | - |
| 1777759288 | 11.67° C | 41% | 1017.8 hPa | 0 mm | - | 305 W/m² | - |
| 1777758986 | 11.67° C | 35% | 1017.9 hPa | 0 mm | - | 310 W/m² | - |
| 1777758682 | 11.11° C | 38% | 1017.8 hPa | 0 mm | - | 314 W/m² | - |
| 1777758379 | 11.11° C | 38% | 1017.9 hPa | 0 mm | - | 342 W/m² | - |
| 1777758077 | 10.56° C | 37% | 1017.8 hPa | 0 mm | - | 379 W/m² | - |
| 1777757774 | 11.67° C | 41% | 1017.8 hPa | 0 mm | - | 406 W/m² | - |
| 1777757471 | 11.11° C | 41% | 1018 hPa | 0 mm | - | 408 W/m² | - |
| 1777757170 | 11.11° C | 39% | 1017.9 hPa | 0 mm | - | 414 W/m² | - |
| 1777756868 | 11.11° C | 38% | 1018 hPa | 0 mm | - | 409 W/m² | - |
| 1777756563 | 11.11° C | 38% | 1017.8 hPa | 0 mm | - | 419 W/m² | - |
| 1777756260 | 10.56° C | 39% | 1018 hPa | 0 mm | - | 465 W/m² | - |
| 1777755957 | 11.11° C | 35% | 1018.1 hPa | 0 mm | - | 474 W/m² | - |
| 1777755654 | 11.67° C | 36% | 1017.9 hPa | 0 mm | - | 492 W/m² | - |
| 1777755350 | 11.67° C | 35% | 1017.9 hPa | 0 mm | - | 478 W/m² | - |
| 1777755048 | 10.56° C | 35% | 1018 hPa | 0 mm | - | 478 W/m² | - |
| 1777754744 | 11.67° C | 36% | 1018.2 hPa | 0 mm | - | 506 W/m² | - |
| 1777754442 | 11.67° C | 34% | 1018.2 hPa | 0 mm | - | 532 W/m² | - |
| 1777754139 | 11.11° C | 37% | 1018.2 hPa | 0 mm | - | 539 W/m² | - |
* Rain latest hour (hover to see other rain measurements)
** Current wind speed in m/s (hover to see current wind gust speed)